Waarnemingen

Advertentie
Mijn weer
Lycksele, Zweden (2261): temperatuur & dauwpunt: 11.10.2018 05:00:00 - 17.10.2018 05:00:00 (CEST)Lycksele, Zweden (2261): windsnelheid & windstoten: 11.10.2018 05:00:00 - 17.10.2018 05:00:00 (CEST)Lycksele, Zweden (2261): windrichting: 11.10.2018 05:00:00 - 17.10.2018 05:00:00 (CEST)Lycksele, Zweden (2261): luchtdruk: 11.10.2018 05:00:00 - 17.10.2018 05:00:00 (CEST)Lycksele, Zweden (2261): zicht: 11.10.2018 05:00:00 - 17.10.2018 05:00:00 (CEST)Lycksele, Zweden (2261): neerslag: 11.10.2018 05:00:00 - 17.10.2018 05:00:00 (CEST)
Datum & Tijd tt [°C] td [°C] ff [km/u] ff [kn] fx [km/u] fx [kn] dd ppp [hPa] vv [km] rr [mm]
17.10.2018 05:00:00 - - - - - - - - - -
17.10.2018 04:00:00 3,9 3,3 13 7 19 11 OZO 1014,8 50 0,0
17.10.2018 03:00:00 3,1 3,1 9 5 18 10 ZO 1015,7 50 0,0
17.10.2018 02:00:00 2,9 2,9 13 7 21 11 ZO 1016,2 50 0,0
17.10.2018 01:00:00 2,1 2,1 8 4 14 8 ZZO 1017,3 50 0,0
17.10.2018 00:00:00 -0,9 -0,9 4 2 8 5 ZZO 1018,1 39 0,0
16.10.2018 23:00:00 1,1 1,1 5 3 9 5 ZZO 1018,0 50 0,0
16.10.2018 22:00:00 -1,2 -1,2 2 1 4 2 Z 1018,8 50 0,0
16.10.2018 21:00:00 -0,4 -0,4 0 0 8 4 N 1019,2 29 0,0
16.10.2018 20:00:00 0,1 0,1 5 3 7 4 ZZO 1018,7 34 0,0
16.10.2018 19:00:00 0,3 0,3 4 2 8 4 Z 1019,2 50 0,0
16.10.2018 18:00:00 2,5 2,5 3 2 5 3 ZO 1018,8 50 0,0
16.10.2018 17:00:00 4,7 2,7 3 2 9 5 Z 1018,4 50 0,0
16.10.2018 16:00:00 7,1 3,0 5 3 9 5 W 1018,2 49 0,0
16.10.2018 15:00:00 6,9 2,6 5 3 10 5 W 1017,7 50 0,0
16.10.2018 14:00:00 6,7 2,2 6 3 14 8 NW 1017,7 50 0,0
16.10.2018 13:00:00 7,1 2,2 4 2 16 9 W 1017,5 50 0,0
16.10.2018 12:00:00 7,1 2,4 5 3 16 9 W 1017,0 50 0,0
16.10.2018 11:00:00 6,3 2,2 7 4 18 10 WNW 1016,4 50 0,0
16.10.2018 10:00:00 4,7 1,5 8 5 18 10 W 1015,9 50 0,0
16.10.2018 09:00:00 0,2 0,2 2 1 9 5 ZW 1016,0 50 0,0
16.10.2018 08:00:00 -2,5 -2,5 0 0 5 3 N 1015,7 50 0,0
16.10.2018 07:00:00 -1,5 -1,5 0 0 4 2 N 1015,0 50 0,0
16.10.2018 06:00:00 -0,8 -0,8 0 0 3 2 N 1014,5 50 0,0
16.10.2018 05:00:00 0,7 0,7 0 0 4 2 N 1014,0 14 0,0
16.10.2018 04:00:00 3,0 3,0 0 0 5 3 N 1013,5 50 0,0
16.10.2018 03:00:00 4,2 4,2 0 0 7 4 N 1012,9 50 0,0
16.10.2018 02:00:00 5,4 5,0 0 0 7 4 N 1012,8 50 0,0
16.10.2018 01:00:00 4,8 4,8 3 2 8 4 WZW 1012,4 22 0,0
16.10.2018 00:00:00 4,9 4,9 0 0 7 4 N 1012,1 50 0,0
15.10.2018 23:00:00 5,1 5,1 0 0 5 3 N 1012,4 50 0,0
15.10.2018 22:00:00 5,2 5,2 3 2 5 3 W 1012,1 50 0,0
15.10.2018 21:00:00 5,5 5,5 0 0 4 2 N 1012,4 50 0,0
15.10.2018 20:00:00 5,6 5,6 0 0 4 2 N 1012,8 50 0,0
15.10.2018 19:00:00 5,9 5,9 2 1 5 3 ZZW 1012,9 48 0,0
15.10.2018 18:00:00 6,5 6,2 0 0 6 3 N 1012,9 43 0,0
15.10.2018 17:00:00 7,3 5,1 0 0 5 3 N 1012,6 50 0,0
15.10.2018 16:00:00 8,1 4,7 3 2 6 4 ZZO 1012,3 50 0,0
15.10.2018 15:00:00 8,8 3,4 3 2 11 6 WNW 1012,3 50 0,0
15.10.2018 14:00:00 8,8 3,2 9 5 19 10 WNW 1012,1 50 0,0
15.10.2018 13:00:00 9,2 3,2 11 6 21 11 NW 1012,1 50 0,0
15.10.2018 12:00:00 9,1 4,1 10 6 21 11 WNW 1012,0 50 0,0
15.10.2018 11:00:00 9,0 4,4 12 6 19 11 NW 1011,3 50 0,0
15.10.2018 10:00:00 9,1 4,1 10 5 25 13 WNW 1010,4 50 0,0
15.10.2018 09:00:00 9,4 7,3 3 2 16 9 WNW 1008,9 50 0,0
15.10.2018 08:00:00 9,6 7,4 13 7 30 16 WNW 1007,3 50 0,0
15.10.2018 07:00:00 11,1 8,0 10 5 35 19 WNW 1006,2 50 0,0
15.10.2018 06:00:00 12,7 8,0 9 5 22 12 W 1004,9 28 0,0
15.10.2018 05:00:00 10,6 7,3 6 3 16 8 ZZO 1004,1 28 0,0
15.10.2018 04:00:00 12,6 7,5 4 2 22 12 Z 1003,4 34 0,0
15.10.2018 03:00:00 12,2 7,5 6 4 16 9 ZZO 1003,2 38 0,0
15.10.2018 02:00:00 11,4 7,1 7 4 15 8 ZO 1003,0 38 0,0
15.10.2018 01:00:00 13,8 7,6 6 3 21 11 Z 1003,1 45 0,0
15.10.2018 00:00:00 14,6 7,9 9 5 31 17 Z 1003,4 44 0,0
14.10.2018 23:00:00 15,2 8,0 10 6 32 17 ZZO 1003,5 49 0,0
14.10.2018 22:00:00 16,0 8,7 13 7 35 19 Z 1003,5 50 0,0
14.10.2018 21:00:00 16,5 9,2 19 10 44 24 Z 1003,5 50 0,0
14.10.2018 20:00:00 16,8 10,2 13 7 39 21 Z 1003,8 50 0,0
14.10.2018 19:00:00 17,4 11,2 18 10 31 17 ZZO 1003,6 50 0,0
14.10.2018 18:00:00 18,3 11,4 9 5 21 11 ZZO 1004,1 50 0,0
14.10.2018 17:00:00 19,1 11,4 10 6 31 17 ZZO 1004,3 50 0,0
14.10.2018 16:00:00 20,8 11,7 14 8 36 19 Z 1004,6 43 0,0
14.10.2018 15:00:00 21,4 11,7 16 8 40 21 ZZW 1004,8 43 0,0
14.10.2018 14:00:00 21,0 12,2 18 10 45 24 Z 1005,1 42 0,0
14.10.2018 13:00:00 21,2 12,6 13 7 34 19 Z 1005,6 39 0,0
14.10.2018 12:00:00 20,9 12,8 15 8 33 18 Z 1005,8 34 0,0
14.10.2018 11:00:00 19,7 12,7 15 8 35 19 Z 1006,1 48 0,0
14.10.2018 10:00:00 18,9 12,2 14 8 35 19 Z 1006,1 46 0,0
14.10.2018 09:00:00 18,1 12,1 13 7 33 18 ZZW 1005,9 47 0,0
14.10.2018 08:00:00 17,5 12,2 13 7 29 15 ZZW 1005,8 50 0,0
14.10.2018 07:00:00 15,4 12,3 12 6 29 16 ZO 1006,0 50 0,0
14.10.2018 06:00:00 15,0 12,7 20 11 28 15 ZZO 1006,4 50 0,0
14.10.2018 05:00:00 14,2 12,6 16 8 27 14 ZZO 1006,3 50 0,0
14.10.2018 04:00:00 12,7 12,4 16 9 27 15 ZO 1006,9 43 0,0
14.10.2018 03:00:00 12,3 12,1 18 10 27 15 ZO 1007,2 34 0,0
14.10.2018 02:00:00 12,4 11,9 17 9 25 13 ZO 1007,6 28 0,0
14.10.2018 01:00:00 12,5 12,0 17 9 27 15 ZO 1007,8 27 0,0
14.10.2018 00:00:00 12,5 11,9 18 10 27 15 ZO 1007,8 24 0,0
13.10.2018 23:00:00 12,3 11,7 16 9 23 12 ZO 1008,1 21 0,0
13.10.2018 22:00:00 11,6 11,3 16 8 22 12 ZO 1008,8 18 0,0
13.10.2018 21:00:00 11,8 11,0 16 9 22 12 ZO 1009,3 21 0,0
13.10.2018 20:00:00 12,8 11,0 15 8 20 11 ZZO 1009,3 29 0,0
13.10.2018 19:00:00 13,9 11,2 7 4 17 9 ZO 1009,9 37 0,0
13.10.2018 18:00:00 14,7 11,3 9 5 19 10 ZZO 1009,4 44 0,0
13.10.2018 17:00:00 15,5 11,3 9 5 21 12 Z 1009,5 43 0,0
13.10.2018 16:00:00 14,8 11,0 10 5 26 14 ZO 1009,2 46 0,0
13.10.2018 15:00:00 15,7 10,9 13 7 28 15 Z 1008,9 47 0,0
13.10.2018 14:00:00 16,6 10,9 7 4 22 12 Z 1009,4 35 0,0
13.10.2018 13:00:00 16,1 10,2 12 6 22 12 Z 1009,3 35 0,0
13.10.2018 12:00:00 13,5 9,7 9 5 18 10 ZO 1009,8 32 0,0
13.10.2018 11:00:00 10,7 9,6 12 7 19 10 ZO 1009,8 23 0,0
13.10.2018 10:00:00 9,0 9,0 14 7 21 11 ZZO 1010,4 19 0,0
13.10.2018 09:00:00 8,1 8,1 14 8 21 12 ZO 1011,0 12 0,0
13.10.2018 08:00:00 7,2 7,2 11 6 19 10 ZO 1010,7 10 0,0
13.10.2018 07:00:00 6,6 6,6 14 8 21 12 ZO 1011,0 10 0,0
13.10.2018 06:00:00 6,6 6,6 9 5 19 10 O 1012,4 12 0,0
13.10.2018 05:00:00 6,3 6,3 10 6 23 13 ZZO 1013,1 10 0,0
13.10.2018 04:00:00 6,1 6,1 21 11 25 14 ZO 1012,9 8 0,0
13.10.2018 03:00:00 6,0 6,0 15 8 19 10 ZO 1013,3 6 0,0
13.10.2018 02:00:00 6,4 6,4 12 6 17 9 ZO 1014,7 6 0,0
13.10.2018 01:00:00 6,8 6,8 8 4 15 8 ZO 1014,9 8 0,0
13.10.2018 00:00:00 6,9 6,9 10 5 18 10 ZO 1015,5 9 0,0
12.10.2018 23:00:00 6,8 6,8 11 6 15 8 ZO 1015,9 8 0,0
12.10.2018 22:00:00 6,6 6,6 10 5 14 7 ZZO 1016,7 8 0,0
12.10.2018 21:00:00 6,2 6,2 3 1 14 7 ZZO 1017,4 7 0,0
12.10.2018 20:00:00 5,4 5,4 10 6 16 9 ZO 1017,2 7 0,0
12.10.2018 19:00:00 5,8 5,8 8 4 16 8 ZZO 1016,2 18 0,0
12.10.2018 18:00:00 6,6 6,5 11 6 24 13 ZO 1016,6 34 0,0
12.10.2018 17:00:00 9,0 6,6 19 10 27 14 ZO 1016,5 44 0,0
12.10.2018 16:00:00 10,6 7,7 13 7 21 11 ZO 1017,0 46 0,0
12.10.2018 15:00:00 10,0 8,1 11 6 19 11 ZO 1017,7 44 0,0
12.10.2018 14:00:00 8,6 8,5 10 5 15 8 OZO 1018,7 38 0,0
12.10.2018 13:00:00 7,8 7,8 11 6 15 8 OZO 1019,2 23 0,0
12.10.2018 12:00:00 7,5 7,5 7 4 11 6 OZO 1019,8 21 0,0
12.10.2018 11:00:00 6,7 6,7 8 4 13 7 ZZO 1020,0 8 0,0
12.10.2018 10:00:00 6,1 6,1 10 5 14 7 ZO 1020,0 8 0,0
12.10.2018 09:00:00 5,7 5,7 10 6 14 7 ZO 1020,0 0,5 0,0
12.10.2018 08:00:00 4,8 4,8 5 3 10 5 Z 1019,8 0,3 0,0
12.10.2018 07:00:00 5,6 5,6 5 3 14 7 ZZO 1019,8 3,5 0,0
12.10.2018 06:00:00 5,6 5,6 10 6 18 10 ZO 1019,6 7 0,0
12.10.2018 05:00:00 5,6 5,6 10 5 18 10 ZO 1019,9 10 0,0
12.10.2018 04:00:00 5,6 5,6 14 7 22 12 OZO 1020,1 19 0,0
12.10.2018 03:00:00 5,9 5,9 14 7 20 11 ZO 1020,1 11 0,0
12.10.2018 02:00:00 6,4 6,4 13 7 22 12 ZO 1020,9 2,9 0,0
12.10.2018 01:00:00 6,1 6,1 11 6 16 9 ZO 1021,5 1,8 0,0
12.10.2018 00:00:00 6,5 6,5 9 5 19 10 OZO 1021,6 5 0,0
11.10.2018 23:00:00 6,6 6,6 14 8 23 12 ZO 1021,7 5 0,0
11.10.2018 22:00:00 7,6 7,6 13 7 16 9 ZO 1021,7 44 0,0
11.10.2018 21:00:00 8,3 8,2 13 7 20 11 ZO 1021,8 50 0,0
11.10.2018 20:00:00 9,0 8,4 11 6 16 9 ZO 1021,7 50 0,0
11.10.2018 19:00:00 6,3 6,3 3 1 6 3 ZO 1022,2 50 0,0
11.10.2018 18:00:00 8,3 7,9 0 0 5 3 N 1022,2 50 0,0
11.10.2018 17:00:00 11,5 7,8 4 2 11 6 Z 1022,3 50 0,0
11.10.2018 16:00:00 13,2 8,1 6 4 16 9 ZZO 1022,4 50 0,0
11.10.2018 15:00:00 14,2 8,2 13 7 16 9 ZO 1022,5 47 0,0
11.10.2018 14:00:00 14,1 7,4 7 4 11 6 ZO 1023,2 50 0,0
11.10.2018 13:00:00 13,2 7,0 4 2 6 4 ZO 1023,6 46 0,0
11.10.2018 12:00:00 10,4 5,4 3 1 6 3 ZO 1024,7 42 0,0
11.10.2018 11:00:00 7,8 3,8 3 2 6 3 OZO 1025,0 45 0,0
11.10.2018 10:00:00 4,4 2,4 0 0 3 1 N 1025,1 50 0,0
11.10.2018 09:00:00 1,0 0,9 0 0 7 4 N 1025,1 48 0,0
11.10.2018 08:00:00 -0,9 -0,9 0 0 2 1 N 1024,3 45 0,0
11.10.2018 07:00:00 -1,0 -1,0 0 0 4 2 N 1024,0 49 0,0
11.10.2018 06:00:00 -0,3 -0,3 0 0 4 2 N 1023,9 50 0,0
11.10.2018 05:00:00 0,9 0,9 0 0 4 2 N 1023,5 44 0,0

tt = temperatuur
td = dauwpunt
ff = windsnelheid
fx = windstoten
dd = windrichting
ppp = luchtdruk
vv = zicht
rr = neerslag

Weerstations in de omgeving